Location: Bacea
(45.9500°N, 22.6667°E)
Time: 20:11:02
(UTC+00:00)

Cosmos 1455 Rocket - Pass Details

Date: 16 October 2021
Orbit: 604 x 630 km, 82.5° (Epoch: 29 November)

Event Time Altitude Azimuth Distance (km) Brightness Sun altitude
Rises 16:30:15 0° 160° (SSE) 2,877 6.3 -9.2°
Reaches altitude 10° 16:32:40 10° 149° (SSE) 1,982 5.4 -9.6°
Maximum altitude 16:36:28 29° 89° (E) 1,141 3.9 -10.3°
Drops below altitude 10° 16:40:19 10° 30° (NNE) 2,009 5.4 -11.0°
Sets 16:42:46 0° 19° (NNE) 2,925 6.3 -11.4°
